Coldwater, MI

10:13 PM EDT on July 20, 2017 (GMT -0400)
Branch County Memorial

Weather History for KOEB - February, 2013

Change the Weather History Date:

Tuesday, February 26, 2013

  Actual Average (KJYM) Record (KJYM)
Temperature  
Mean Temperature 30 °F -  
Max Temperature 34 °F 36 °F 62 °F (1976)
Min Temperature 28 °F 16 °F -17 °F (1963)
Degree Days  
Heating Degree Days 34    
Moisture  
Dew Point 26 °F    
Average Humidity 81    
Maximum Humidity 96    
Minimum Humidity 62    
Precipitation  
Precipitation 0.00 in - - ()
Sea Level Pressure  
Sea Level Pressure 29.70 in    
Wind  
Wind Speed 12 mph (ENE)    
Max Wind Speed 22 mph    
Max Gust Speed 32 mph    
Visibility 6 miles    
Events Snow    
Averages and records for this station are not official NWS values.
T = Trace of Precipitation, MM = Missing Value Source: NWS Daily Summary

Daily Weather History Graph

Daily Weather History Graph

Search for Another Location

Airport or City:

Trip Planner

Search our weather history database for the weather conditions in past years. The results will help you decide how hot, cold, wet, or windy it might be!

Date:

Astronomy

Feb. 26, 2013 Rise Set
Actual Time 7:19 AM EST 6:27 PM EST
Civil Twilight 6:51 AM EST 6:55 PM EST
Nautical Twilight 6:19 AM EST 7:27 PM EST
Astronomical Twilight 5:46 AM EST 7:59 PM EST
Moon 7:45 PM EST (2/26) 7:20 AM EST (2/26)
Length of Visible Light 12h 03m
Length of Day
11h 07m
Full, 99% of the Moon is Illuminated
Feb 26
Full
Mar 4
Last Quarter
Mar 11
New
Mar 19
First Quarter
Mar 27
Full

Hourly Weather History & Observations

Time (EST) Temp. Windchill Dew Point Humidity Pressure Visibility Wind Dir Wind Speed Gust Speed Precip Events Conditions
12:14 AM 29.8 °F 23.0 °F 21.0 °F 70% 30.04 in 10.0 mi East 6.9 mph - N/A   Clear
12:34 AM 29.7 °F 21.3 °F 21.0 °F 70% 30.03 in 10.0 mi East 9.2 mph - N/A   Clear
12:55 AM 29.3 °F 19.6 °F 21.2 °F 72% 30.02 in 10.0 mi ENE 11.5 mph - N/A   Clear
1:14 AM 29.3 °F 20.8 °F 21.0 °F 71% 30.02 in 10.0 mi East 9.2 mph - N/A   Clear
1:34 AM 28.9 °F 20.4 °F 21.2 °F 73% 30.01 in 10.0 mi ENE 9.2 mph - N/A   Clear
1:55 AM 29.3 °F 20.2 °F 21.0 °F 71% 30.01 in 10.0 mi ENE 10.4 mph - N/A   Clear
2:14 AM 29.3 °F 19.6 °F 21.2 °F 72% 30.00 in 10.0 mi ENE 11.5 mph - N/A   Clear
2:34 AM 29.3 °F 20.8 °F 21.2 °F 72% 29.99 in 10.0 mi East 9.2 mph - N/A   Clear
2:54 AM 29.3 °F 19.6 °F 21.2 °F 72% 29.99 in 10.0 mi East 11.5 mph - N/A   Clear
3:14 AM 29.3 °F 20.2 °F 21.2 °F 72% 29.98 in 10.0 mi East 10.4 mph - N/A   Clear
3:35 AM 29.3 °F 18.6 °F 21.2 °F 72% 29.95 in 10.0 mi ENE 13.8 mph 17.3 mph N/A   Clear
3:54 AM 28.9 °F 19.8 °F 21.2 °F 73% 29.95 in 10.0 mi ENE 10.4 mph - N/A   Clear
4:14 AM 29.1 °F 18.9 °F 21.0 °F 72% 29.92 in 10.0 mi ENE 12.7 mph 18.4 mph N/A   Clear
4:35 AM 29.1 °F 18.4 °F 21.0 °F 72% 29.90 in 10.0 mi ENE 13.8 mph 19.6 mph N/A   Clear
4:54 AM 29.1 °F 18.9 °F 21.0 °F 72% 29.89 in 10.0 mi ENE 12.7 mph 17.3 mph N/A   Clear
5:14 AM 29.3 °F 18.6 °F 21.0 °F 71% 29.89 in 10.0 mi ENE 13.8 mph - N/A   Clear
5:34 AM 29.8 °F 20.9 °F 21.2 °F 70% 29.90 in 10.0 mi East 10.4 mph - N/A   Clear
5:54 AM 29.7 °F 19.6 °F 21.4 °F 71% 29.88 in 10.0 mi ENE 12.7 mph - N/A   Clear
6:14 AM 30.0 °F 19.1 °F 21.4 °F 70% 29.88 in 10.0 mi ENE 15.0 mph - N/A   Clear
6:34 AM 30.2 °F 18.5 °F 21.2 °F 69% 29.86 in 10.0 mi ENE 17.3 mph - N/A   Clear
6:54 AM 30.0 °F 19.1 °F 21.7 °F 71% 29.84 in 10.0 mi ENE 15.0 mph 21.9 mph N/A   Clear
7:15 AM 30.6 °F 21.2 °F 21.4 °F 69% 29.86 in 10.0 mi ENE 11.5 mph - N/A   Clear
7:34 AM 30.9 °F 21.7 °F 21.6 °F 68% 29.87 in 10.0 mi East 11.5 mph - N/A   Clear
7:54 AM 31.1 °F 19.7 °F 21.9 °F 69% 29.84 in 10.0 mi NE 17.3 mph 23.0 mph N/A   Clear
8:15 AM 31.8 °F 21.0 °F 21.7 °F 66% 29.85 in 10.0 mi ENE 16.1 mph 20.7 mph N/A   Clear
8:34 AM 32.0 °F 20.8 °F 21.7 °F 66% 29.83 in 10.0 mi ENE 17.3 mph 26.5 mph N/A   Clear
8:54 AM 32.0 °F 22.1 °F 21.9 °F 66% 29.81 in 10.0 mi ENE 13.8 mph 21.9 mph N/A   Clear
9:15 AM 32.0 °F 22.5 °F 22.3 °F 67% 29.81 in 10.0 mi East 12.7 mph 19.6 mph N/A   Clear
9:34 AM 32.4 °F 20.9 °F 22.1 °F 66% 29.79 in 10.0 mi ENE 18.4 mph 24.2 mph N/A   Mostly Cloudy
9:54 AM 32.9 °F 22.8 °F 22.3 °F 65% 29.77 in 10.0 mi East 15.0 mph 24.2 mph N/A   Scattered Clouds
10:14 AM 33.4 °F 22.3 °F 22.3 °F 64% 29.74 in 10.0 mi ENE 18.4 mph 26.5 mph N/A   Scattered Clouds
10:34 AM 33.8 °F 23.9 °F 22.1 °F 62% 29.73 in 10.0 mi East 15.0 mph 26.5 mph N/A   Mostly Cloudy
10:55 AM 33.8 °F 22.8 °F 22.5 °F 63% 29.72 in 10.0 mi East 18.4 mph 28.8 mph N/A   Overcast
11:14 AM 33.8 °F 23.5 °F 22.8 °F 64% 29.71 in 10.0 mi East 16.1 mph 26.5 mph N/A   Overcast
11:34 AM 33.8 °F 22.8 °F 24.1 °F 68% 29.69 in 5.0 mi East 18.4 mph 28.8 mph N/A Snow Light Snow
11:55 AM 33.1 °F 23.0 °F 26.2 °F 76% 29.67 in 4.0 mi East 15.0 mph 23.0 mph N/A Snow Light Snow
12:14 PM 32.9 °F 21.6 °F 27.1 °F 79% 29.65 in 4.0 mi East 18.4 mph 26.5 mph N/A Snow Light Snow
12:34 PM 32.5 °F 20.2 °F 27.9 °F 83% 29.63 in 4.0 mi East 21.9 mph 32.2 mph N/A Snow Light Snow
12:54 PM 32.4 °F 20.0 °F 28.0 °F 84% 29.61 in 5.0 mi East 21.9 mph 27.6 mph N/A Snow Light Snow
1:14 PM 32.4 °F 21.3 °F 28.0 °F 84% 29.59 in 5.0 mi ENE 17.3 mph 31.1 mph N/A   Overcast
1:34 PM 32.5 °F 21.9 °F 28.6 °F 85% 29.58 in 4.0 mi East 16.1 mph 28.8 mph N/A Snow Light Snow
1:54 PM 32.5 °F 21.5 °F 29.1 °F 87% 29.58 in 2.5 mi East 17.3 mph 27.6 mph N/A Snow Light Snow
2:14 PM 32.5 °F 21.5 °F 29.7 °F 89% 29.57 in 2.0 mi East 17.3 mph 26.5 mph N/A Snow Light Snow
2:35 PM 32.9 °F 22.4 °F 30.0 °F 89% 29.57 in 3.0 mi East 16.1 mph 25.3 mph N/A Snow Light Snow
2:54 PM 32.9 °F 22.0 °F 30.2 °F 90% 29.56 in 3.0 mi East 17.3 mph 23.0 mph N/A Snow Light Snow
3:14 PM 32.9 °F 23.2 °F 30.6 °F 91% 29.54 in 3.0 mi East 13.8 mph 26.5 mph N/A Snow Light Snow
3:34 PM 32.9 °F 21.6 °F 30.6 °F 91% 29.54 in 5.0 mi East 18.4 mph 26.5 mph N/A Snow Light Snow
3:54 PM 33.1 °F 22.2 °F 30.7 °F 91% 29.54 in 1.8 mi East 17.3 mph 23.0 mph N/A Snow Light Snow
4:15 PM 32.9 °F 22.4 °F 31.1 °F 93% 29.54 in 0.8 mi East 16.1 mph 23.0 mph N/A Snow Light Snow
4:34 PM 32.9 °F 23.2 °F 31.1 °F 93% 29.53 in 0.5 mi East 13.8 mph 24.2 mph N/A Snow Snow
4:54 PM 32.7 °F 22.1 °F 31.5 °F 95% 29.52 in 0.5 mi East 16.1 mph 23.0 mph N/A Snow Light Snow
5:15 PM 32.9 °F 22.0 °F 31.5 °F 94% 29.52 in 1.2 mi East 17.3 mph 23.0 mph N/A Snow Light Snow
5:34 PM 32.9 °F 22.0 °F 31.1 °F 93% 29.51 in 1.5 mi East 17.3 mph 24.2 mph N/A Snow Light Snow
5:54 PM 32.9 °F 22.0 °F 31.3 °F 94% 29.51 in 1.2 mi East 17.3 mph 25.3 mph N/A Snow Light Snow
6:15 PM 32.9 °F 23.7 °F 31.5 °F 94% 29.50 in 1.2 mi East 12.7 mph 20.7 mph N/A Snow Light Snow
6:34 PM 32.9 °F 22.8 °F 31.5 °F 94% 29.50 in 1.8 mi ENE 15.0 mph 20.7 mph N/A Snow Light Snow
6:54 PM 32.9 °F 22.8 °F 31.6 °F 95% 29.50 in 1.5 mi East 15.0 mph 20.7 mph N/A Snow Light Snow
7:15 PM 32.9 °F 23.7 °F 31.8 °F 96% 29.50 in 1.5 mi ENE 12.7 mph 18.4 mph N/A Snow Light Snow
7:34 PM 32.9 °F 24.1 °F 31.8 °F 96% 29.50 in 1.5 mi ENE 11.5 mph - N/A Snow Light Snow
7:54 PM 32.9 °F 24.7 °F 31.8 °F 96% 29.49 in 1.5 mi ENE 10.4 mph - N/A Snow Light Snow
8:15 PM 32.9 °F 24.1 °F 32.0 °F 96% 29.49 in 2.5 mi ENE 11.5 mph - N/A Snow Light Snow
8:34 PM 32.9 °F 24.7 °F 32.0 °F 96% 29.48 in 2.0 mi ENE 10.4 mph 19.6 mph N/A Snow Light Snow
8:54 PM 32.9 °F 25.3 °F 32.0 °F 96% 29.48 in 1.5 mi ENE 9.2 mph - N/A Snow Light Snow
9:14 PM 32.9 °F 24.1 °F 32.0 °F 96% 29.48 in 3.0 mi ENE 11.5 mph 17.3 mph N/A Snow Light Snow
9:34 PM 33.1 °F 24.4 °F 32.0 °F 96% 29.47 in 3.0 mi East 11.5 mph 17.3 mph N/A Snow Light Snow
9:54 PM 32.9 °F 25.3 °F 31.8 °F 96% 29.46 in 4.0 mi ENE 9.2 mph - N/A Snow Light Snow
10:14 PM 32.9 °F 25.3 °F 31.8 °F 96% 29.46 in 4.0 mi ENE 9.2 mph - N/A Snow Light Snow
10:34 PM 32.9 °F 25.9 °F 32.0 °F 96% 29.45 in 5.0 mi ENE 8.1 mph - N/A Snow Light Snow
10:55 PM 32.9 °F 25.9 °F 31.8 °F 96% 29.45 in 5.0 mi ENE 8.1 mph - N/A Snow Light Snow
11:14 PM 32.9 °F 25.9 °F 32.0 °F 96% 29.44 in 5.0 mi ENE 8.1 mph - N/A Snow Light Snow
11:34 PM 32.9 °F 25.9 °F 32.0 °F 96% 29.44 in 5.0 mi ENE 8.1 mph - N/A Snow Light Snow
11:55 PM 32.9 °F 26.7 °F 32.0 °F 96% 29.44 in 5.0 mi NE 6.9 mph - N/A Snow Light Snow